Location: Orange
(33.2833°S, 149.1000°E)
Time: 10:37:49
(UTC+11:00)

Envisat - Pass Details

Date: 10 December 2021
Orbit: 764 x 766 km, 98.2° (Epoch: 22 January)

Event Time Altitude Azimuth Distance (km) Brightness Sun altitude
Rises 04:49:25 0° 28° (NNE) 3,217 6.1 -11.0°
Reaches altitude 10° 04:51:46 10° 34° (NE) 2,299 5.5 -10.6°
Maximum altitude 04:56:37 48° 107° (ESE) 1,008 4.2 -9.8°
Drops below altitude 10° 05:01:32 10° 179° (S) 2,327 6.0 -9.0°
Sets 05:03:55 0° 185° (S) 3,260 6.7 -8.6°
